Location: Newark
(41.8083°N, 72.2500°W)
Time: 03:45:31
(UTC+00:00)

Explorer 11/Cluster Stage 4 - Visible Passes

Search period start: 28 November 2021 00:00
Search period end: 08 December 2021 00:00
Orbit: 467 x 1255 km, 28.8° (Epoch: 27 November)

Date Brightness Start Highest point End Pass type
(mag) Time Alt. Az. Time Alt. Az. Time Alt. Az.
28 Nov 9.5 07:56:46 15° SSE 07:56:46 15° SSE 08:00:20 10° ESE visible
28 Nov 8.9 09:38:53 15° SW 09:44:02 28° SSE 09:50:43 10° ESE visible
29 Nov 9.5 07:46:23 15° SE 07:46:23 15° SE 07:49:04 10° ESE visible
29 Nov 8.8 09:28:30 20° SSW 09:32:25 29° S 09:39:13 10° ESE visible
29 Nov 8.9 11:13:55 10° WSW 11:20:52 31° S 11:27:39 10° SE visible
30 Nov 9.6 07:35:55 14° SE 07:35:55 14° SE 07:37:43 10° ESE visible
30 Nov 8.7 09:18:02 24° SSW 09:20:48 30° S 09:27:40 10° ESE visible
30 Nov 8.9 11:02:23 10° WSW 11:09:15 31° S 11:16:04 10° SE visible
01 Dec 9.8 07:25:25 12° ESE 07:25:25 12° ESE 07:26:17 10° ESE visible
01 Dec 8.5 09:07:31 28° SSW 09:09:11 30° S 09:16:05 10° ESE visible
01 Dec 8.8 10:50:54 10° WSW 10:57:38 30° S 11:04:25 10° SE visible
02 Dec 8.5 08:56:57 30° S 08:57:35 30° S 09:04:27 10° ESE visible
02 Dec 8.8 10:39:28 10° WSW 10:46:00 28° S 10:52:44 10° SE visible
03 Dec 8.5 08:46:22 30° S 08:46:22 30° S 08:52:47 10° ESE visible
03 Dec 8.8 10:28:28 11° WSW 10:34:23 27° SSW 10:40:58 10° SE visible
04 Dec 8.7 08:35:46 28° SSE 08:35:46 28° SSE 08:41:05 10° ESE visible
04 Dec 8.9 10:17:51 14° WSW 10:22:46 25° SSW 10:29:09 10° SE visible
05 Dec 8.9 08:25:09 25° SSE 08:25:09 25° SSE 08:29:20 10° ESE visible
05 Dec 8.9 10:07:15 16° SW 10:11:10 23° SSW 10:17:15 10° SE visible
06 Dec 9.1 08:14:33 20° SE 08:14:33 20° SE 08:17:34 10° SE visible
06 Dec 8.8 09:56:39 17° SW 09:59:34 21° SSW 10:05:17 10° SSE visible
07 Dec 9.4 08:03:58 16° SE 08:03:58 16° SE 08:05:45 10° SE visible
07 Dec 8.8 09:46:04 17° SW 09:47:59 19° SSW 09:53:13 10° SSE visible
